Regional Weather Roundup
Issued by NWS

Home | Current Version | Previous Version | Text Only | Print | Product List | Glossary On
Versions: 1 2 3 4 5 6 7 8 9 10 11 12 13 14 15 16 17 18 19 20 21 22 23 24 25 26 27 28 29 30 31 32 33 34 35 36 37 38 39 40 41 42 43 44 45 46 47 48 49 50
000
ASCA44 KEWX 252020
RWRMX

LATIN AMERICA AND CARIBBEAN REGIONAL WEATHER ROUNDUP
NATIONAL WEATHER SERVICE AUSTIN/SAN ANTONIO TX
300 PM CDT MON MAY 25 2015

NOTE: "FAIR" INDICATED FEW OR NO CLOUDS BELOW 12,000 FEET WITH NO
SIGNIFICANT WEATHER AND/OR OBSTRUCTIONS TO VISIBILITY.

BAJA CALIFORNIA

CITY           SKY/WX    TMP DP  RH WIND       PRES   REMARKS
LORETO         SUNNY     79  66  65 NE14      29.89F
LA PAZ         SUNNY     88  32  13 N12       29.91F
MEXICALI       SUNNY     88  43  20 SE7       29.87F
S.J. DEL CABO  SUNNY     90  57  33 SE14      29.90F
TIJUANA        CLOUDY    63  54  72 W10       30.04F

NORTHWESTERN MEXICO

CITY           SKY/WX    TMP DP  RH WIND       PRES   REMARKS
CULIACAN       SUNNY     97  63  32 S8        29.88F HX  98
DURANGO        SUNNY     82  21  10 SW12      30.14F
GUAYMAS        SUNNY     82  57  42 S10       29.87F
HERMOSILLO     SUNNY     90  37  15 S9        29.94F
CD. JUAREZ     SUNNY     82  45  26 W14       29.92F
LOS MOCHIS     SUNNY     88  50  27 W9        29.91F
OBREGON        SUNNY     90  28  11 SE6       29.88F

NORTHEASTERN MEXICO

CITY           SKY/WX    TMP DP  RH WIND       PRES   REMARKS
CHIHUAHUA      SUNNY     81  19  10 S6        30.01F
MATAMOROS      PTSUNNY   88  79  74 SE18      29.88S HX 102
MONCLOVA         N/A    N/A N/A N/A MISG        N/A
MONTERREY      SUNNY     88  68  51 SE7       29.82F HX  91
NUEVO LAREDO   PTSUNNY   91  75  59 S7        29.80F HX 102
PIEDRAS NEGRAS MOSUNNY   90  73  58 SE7       29.82F HX  98
REYNOSA        PTSUNNY   86  73  66 E9G21     29.83S HX  93
SALTILLO       SUNNY     90  63  40 S12       30.06F HX  90
TORREON        SUNNY     90  36  14 CALM      29.98F
CD. VICTORIA   SUNNY     93  68  43 S12       29.81F HX  97

WESTERN MEXICO

CITY           SKY/WX    TMP DP  RH WIND       PRES   REMARKS
AGUASCALIENTES MOSUNNY   79  34  19 SW9       30.19F
COLIMA         MOSUNNY   90  64  43 SW9       29.93F HX  91
DEL BAJIO      MOSUNNY   81  54  39 CALM      30.23F
GUADALAJARA    PTSUNNY   88  50  27 SE10      30.12F
MANZANILLO     MOSUNNY   86  75  70 W18       29.79F HX  95
MAZATLAN       MOSUNNY   88  61  40 SW13      29.85F
P. VALLARTA    PTSUNNY   86  73  66 SW14      29.85F HX  93
URUAPAN        PTSUNNY   77  63  61 S12       30.15F
ZACATECAS      SUNNY     81  28  15 W6G17     30.23F

CENTRAL MEXICO

CITY           SKY/WX    TMP DP  RH WIND       PRES   REMARKS
CUERNAVACA     MOSUNNY   86  54  32 E6        30.03F
MEXICO CITY    MOSUNNY   77  46  33 NE7       30.26F
MORELIA        PTSUNNY   77  54  44 NW8       30.19F
POZA RICA      MOSUNNY   95  75  52 E7        29.85F HX 107
PUEBLA         PTSUNNY   77  45  31 CALM      30.25F
QUERETARO      PTSUNNY   79  54  41 SE2       30.24F
S. LUIS POTOSI MOSUNNY   79  41  25 NW3       30.18F
TAMPICO        PTSUNNY   88  75  66 SE15      29.83F HX  97
TOLUCA         MOSUNNY   72  46  40 NW8       30.34F

SOUTHERN MEXICO

CITY           SKY/WX    TMP DP  RH WIND       PRES   REMARKS
ACAPULCO       SUNNY     90  77  66 SW8       29.83F HX 102
B. DE HUATULCO PTSUNNY   88  79  74 SW10      29.87F HX 102
OAXACA         PTSUNNY   81  50  34 S8        30.12F
P. ESCONDIDO   SUNNY     90  79  70 SW14      29.94S HX 105
VERACRUZ       MOSUNNY   90  64  43 E12       29.83F HX  91
ZIHUATANEJO    MOSUNNY   91  75  59 SW12      29.84F HX 102

YUCATAN PENINSULA

CITY           SKY/WX    TMP DP  RH WIND       PRES   REMARKS
CAMPECHE       MOSUNNY   97  64  34 SE12G23   29.85F HX  99
CANCUN         MOSUNNY   86  73  66 E14       30.01F HX  93
CHETUMAL       MOSUNNY   88  77  70 SE21      29.95F HX 100
CD. DEL CARMEN PTSUNNY   97  70  41 E10       29.84F HX 103
COZUMEL        MOSUNNY   86  72  62 SE16      30.00F HX  92
MERIDA         PTSUNNY  102  64  29 SE24      29.90F HX 105
MINATITLAN     MOSUNNY   90  79  70 N12       29.79F HX 105
TAPACHULA      PTSUNNY   90  79  70 CALM      29.85F HX 105
TUX. GUTIERREZ MOSUNNY   90  64  43 NE5       29.88F HX  91
VILLAHERMOSA   MOSUNNY   93  70  46 NE9       29.85F HX  99

CENTRAL AMERICA

CITY           SKY/WX    TMP DP  RH WIND       PRES   REMARKS
BELIZE CITY    MOSUNNY   88  77  70 E9        29.95F HX 100
MANAGUA        PTCLDY    90  70  51 E14       29.80F HX  95

CARIBBEAN

CITY           SKY/WX    TMP DP  RH WIND       PRES   REMARKS
ARUBA          MOSUNNY   88  75  66 E21       29.89S HX  97
CURACAO        MOSUNNY   86  70  58 E15       29.92F HX  90
KINGSTON       MOSUNNY   88  73  62 SE29      29.92F HX  96
SAN JUAN       MOSUNNY   84  75  74 E18       30.02F HX  92
SANTO DOMINGO  PTSUNNY   81  70  69 VRB3      30.00S
ST. CROIX      MOSUNNY   86  72  62 E17       30.02  HX  92
ST. KITTS      MOSUNNY   84  72  65 E16       30.00S
ST. MAARTEN    MOSUNNY   84  68  58 E12       30.00S
ST. THOMAS     CLOUDY    84  72  65 SE12      30.01

$$




USA.gov is the U.S. government's official web portal to all federal, state and local government web resources and services.